This is the latest recevied weather packets stored in our database for station/object NT9G. If no packets are shown the sender has not sent any weather packets the latest 10 day(s).
| Time | Temp. | Humidity | Pressure | Rain* | Wind** | Luminosity | Snow |
|---|---|---|---|---|---|---|---|
| 1777327479 | 20.56° C | 70% | 1003.4 hPa | 1.02 mm | - | - | - |
| 1777327178 | 20.56° C | 69% | 1003.2 hPa | 1.02 mm | - | - | - |
| 1777326878 | 20.56° C | 68% | 1003 hPa | 1.02 mm | - | - | - |
| 1777326578 | 21.11° C | 68% | 1002.7 hPa | 1.02 mm | - | - | - |
| 1777326277 | 21.11° C | 67% | 1002.9 hPa | 1.02 mm | - | - | - |
| 1777325977 | 21.11° C | 67% | 1002.8 hPa | 1.02 mm | - | - | - |
| 1777325677 | 21.67° C | 66% | 1002.9 hPa | 1.02 mm | - | - | - |
| 1777325377 | 21.67° C | 65% | 1002.9 hPa | 1.02 mm | - | - | - |
| 1777325076 | 22.22° C | 63% | 1002.9 hPa | 1.02 mm | - | - | - |
| 1777324776 | 22.22° C | 63% | 1002.9 hPa | 1.02 mm | - | - | - |
| 1777324476 | 22.78° C | 63% | 1002.9 hPa | 1.02 mm | - | - | - |
| 1777324175 | 22.78° C | 64% | 1002.9 hPa | 1.02 mm | - | - | - |
| 1777323875 | 22.78° C | 63% | 1002.8 hPa | 1.02 mm | - | - | - |
| 1777323575 | 22.78° C | 62% | 1002.6 hPa | 1.02 mm | - | - | - |
| 1777323274 | 22.78° C | 64% | 1002.6 hPa | 0.76 mm | - | - | - |
| 1777322974 | 22.78° C | 65% | 1002.7 hPa | 0.76 mm | - | - | - |
| 1777322374 | 22.78° C | 65% | 1002.3 hPa | 0.76 mm | - | - | - |
| 1777322073 | 22.78° C | 66% | 1002.2 hPa | 0.76 mm | - | - | - |
| 1777321773 | 22.78° C | 65% | 1002.2 hPa | 0.76 mm | - | - | - |
| 1777321473 | 22.22° C | 65% | 1002.3 hPa | 0.76 mm | - | - | - |
| 1777321172 | 22.78° C | 67% | 1002.2 hPa | 0.76 mm | - | - | - |
| 1777320872 | 22.22° C | 70% | 1001.9 hPa | 0.76 mm | - | - | - |
| 1777320572 | 22.22° C | 73% | 1001.8 hPa | 0.76 mm | - | - | - |
| 1777319971 | 21.67° C | 76% | 1001.5 hPa | 0.76 mm | - | - | - |
| 1777319670 | 21.11° C | 80% | 1001.3 hPa | 0.76 mm | - | - | - |
* Rain since midnight (hover to see other rain measurements)
** Current wind speed in m/s (hover to see current wind gust speed)